Weather History for KWVI - February, 2014

Change the Weather History Date:

Monday, February 10, 2014

  Actual Average Record
Temperature  
Mean Temperature 56 °F 52 °F  
Max Temperature 62 °F 61 °F 75 °F (2002)
Min Temperature 50 °F 42 °F 32 °F (2013)
Degree Days  
Heating Degree Days 9    
Month to date heating degree days 145  
Since 1 July heating degree days 1567  
Cooling Degree Days 0    
Month to date cooling degree days 0  
Year to date cooling degree days 0  
Growing Degree Days 6 (Base 50)    
Moisture  
Dew Point 53 °F    
Average Humidity 86    
Maximum Humidity 100    
Minimum Humidity 72    
Precipitation  
Precipitation 0.05 in - 1.68 in (2001)
Month to date precipitation 2.17  
Year to date precipitation 2.22  
Since 1 July precipitation 3.29  
Sea Level Pressure  
Sea Level Pressure 30.22 in    
Wind  
Wind Speed 3 mph (SSW)    
Max Wind Speed 16 mph    
Max Gust Speed 67 mph    
Visibility 6 miles    
Events Fog , Rain    
T = Trace of Precipitation, MM = Missing Value Source: NWS Daily Summary

Daily Weather History Graph

Daily Weather History Graph

Search for Another Location

Airport or City:

Trip Planner

Search our weather history database for the weather conditions in past years. The results will help you decide how hot, cold, wet, or windy it might be!

Date:

Astronomy

Feb. 10, 2014 Rise Set
Actual Time 7:01 AM PST 5:42 PM PST
Civil Twilight 6:34 AM PST 6:09 PM PST
Nautical Twilight 6:03 AM PST 6:39 PM PST
Astronomical Twilight 5:33 AM PST 7:09 PM PST
Moon 2:18 PM PST (2/10) 3:55 AM PST (2/10)
Length of Visible Light 11h 34m
Length of Day
10h 41m
Waxing Gibbous, 85% of the Moon is Illuminated
Feb 10
Waxing Gibbous
Feb 14
Full
Feb 22
Last Quarter
Mar 1
New
Mar 8
First Quarter

Hourly Weather History & Observations

Time (PST) Temp. Dew Point Humidity Pressure Visibility Wind Dir Wind Speed Gust Speed Precip Events Conditions
12:46 AM 55.4 °F 55.4 °F 100% 30.16 in 3.0 mi SSW 11.5 mph - 0.03 in Rain Light Rain
12:53 AM 55.9 °F 55.9 °F 100% 30.16 in 3.0 mi SSW 9.2 mph - 0.03 in Rain Light Rain
1:00 AM 55.4 °F 55.4 °F 100% 30.16 in 2.5 mi SSW 8.1 mph - 0.00 in Rain Light Rain
1:11 AM 55.4 °F 55.4 °F 100% 30.16 in 3.0 mi SSW 5.8 mph - 0.00 in Rain Light Rain
1:44 AM 55.4 °F 55.4 °F 100% 30.17 in 2.5 mi SW 6.9 mph - 0.01 in   Overcast
1:53 AM 55.0 °F 55.0 °F 100% 30.17 in 2.0 mi SW 6.9 mph - 0.01 in Rain Light Rain
2:03 AM 55.4 °F 55.4 °F 100% 30.17 in 7.0 mi WSW 8.1 mph - 0.00 in   Overcast
2:20 AM 55.4 °F 55.4 °F 100% 30.17 in 2.5 mi SW 8.1 mph - 0.00 in   Overcast
2:33 AM 53.6 °F 53.6 °F 100% 30.17 in 4.0 mi SW 8.1 mph - 0.00 in   Overcast
2:53 AM 54.0 °F 54.0 °F 100% 30.17 in 2.5 mi WSW 9.2 mph - 0.00 in   Overcast
3:14 AM 53.6 °F 53.6 °F 100% 30.18 in 1.5 mi SW 9.2 mph - N/A   Overcast
3:21 AM 53.6 °F 53.6 °F 100% 30.18 in 2.0 mi SW 6.9 mph - N/A   Overcast
3:34 AM 53.6 °F 53.6 °F 100% 30.18 in 4.0 mi SW 5.8 mph - N/A   Overcast
3:53 AM 54.0 °F 54.0 °F 100% 30.18 in 10.0 mi SW 5.8 mph - N/A   Overcast
4:53 AM 54.0 °F 54.0 °F 100% 30.19 in 10.0 mi WSW 4.6 mph - 0.01 in   Overcast
5:29 AM 53.6 °F 53.6 °F 100% 30.19 in 6.0 mi Calm Calm - N/A   Overcast
5:53 AM 54.0 °F 54.0 °F 100% 30.20 in 2.5 mi Calm Calm - N/A   Overcast
6:03 AM 53.6 °F 53.6 °F 100% 30.20 in 1.5 mi Calm Calm - N/A   Overcast
6:12 AM 53.6 °F 53.6 °F 100% 30.21 in 0.8 mi Calm Calm - N/A   Mist
6:33 AM 53.6 °F 53.6 °F 100% 30.22 in 1.2 mi Calm Calm - N/A   Overcast
6:50 AM 53.6 °F 53.6 °F 100% 30.22 in 1.8 mi Calm Calm - N/A   Overcast
6:53 AM 54.0 °F 54.0 °F 100% 30.22 in 1.5 mi Calm Calm - N/A   Overcast
7:00 AM 53.6 °F 53.6 °F 100% 30.23 in 0.8 mi Calm Calm - N/A   Mist
7:23 AM 53.6 °F 53.6 °F 100% 30.23 in 0.2 mi Calm Calm - N/A Fog Fog
7:53 AM 54.0 °F 54.0 °F 100% 30.24 in 0.2 mi Calm Calm - N/A Fog Fog
8:13 AM 53.6 °F 53.6 °F 100% 30.25 in 0.5 mi Calm Calm - N/A Fog Fog
8:38 AM 53.6 °F 53.6 °F 100% 30.26 in 1.5 mi Calm Calm - N/A   Overcast
8:53 AM 54.0 °F 54.0 °F 100% 30.27 in 3.0 mi Calm Calm - N/A   Overcast
9:53 AM 55.0 °F 55.0 °F 100% 30.28 in 10.0 mi Calm Calm - N/A   Overcast
10:08 AM 55.4 °F 53.6 °F 94% 30.29 in 10.0 mi Variable 3.5 mph - N/A   Overcast
10:15 AM 55.4 °F 53.6 °F 94% 30.29 in 10.0 mi Calm Calm - N/A   Overcast
10:53 AM 57.9 °F 54.0 °F 87% 30.28 in 10.0 mi Calm Calm - N/A   Overcast
11:09 AM 59.0 °F 53.6 °F 82% 30.28 in 10.0 mi Calm Calm - N/A   Overcast
11:53 AM 57.9 °F 55.0 °F 90% 30.27 in 10.0 mi SSE 6.9 mph - N/A   Overcast
12:53 PM 60.1 °F 54.0 °F 80% 30.26 in 10.0 mi Variable 6.9 mph - N/A   Overcast
1:05 PM 60.8 °F 53.6 °F 77% 30.25 in 10.0 mi SW 5.8 mph - N/A   Overcast
1:13 PM 59.0 °F 53.6 °F 82% 30.25 in 10.0 mi SW 5.8 mph - N/A   Overcast
1:53 PM 60.1 °F 53.1 °F 78% 30.24 in 10.0 mi South 3.5 mph - N/A   Overcast
2:53 PM 62.1 °F 53.1 °F 72% 30.23 in 10.0 mi SSE 4.6 mph - N/A   Overcast
3:53 PM 61.0 °F 53.1 °F 75% 30.22 in 10.0 mi SSE 4.6 mph - N/A   Overcast
4:14 PM 60.8 °F 51.8 °F 72% 30.22 in 10.0 mi South 5.8 mph - N/A   Scattered Clouds
4:53 PM 57.9 °F 52.0 °F 81% 30.23 in 10.0 mi South 5.8 mph - N/A   Scattered Clouds
5:53 PM 54.0 °F 51.1 °F 90% 30.23 in 10.0 mi South 4.6 mph - N/A   Clear
6:21 PM 53.6 °F 51.8 °F 94% 30.23 in 10.0 mi Calm Calm - N/A   Mostly Cloudy
6:53 PM 54.0 °F 52.0 °F 93% 30.23 in 10.0 mi South 4.6 mph - N/A   Overcast
7:53 PM 53.1 °F 51.1 °F 93% 30.24 in 10.0 mi Calm Calm - N/A   Scattered Clouds
8:42 PM 51.8 °F 50.0 °F 94% 30.24 in 10.0 mi Calm Calm - N/A   Partly Cloudy
8:53 PM 52.0 °F 50.0 °F 93% 30.24 in 8.0 mi Calm Calm - N/A   Partly Cloudy
9:28 PM 51.8 °F 48.2 °F 88% 30.24 in 7.0 mi Calm Calm - N/A   Mostly Cloudy
9:53 PM 52.0 °F 50.0 °F 93% 30.24 in 8.0 mi Calm Calm - N/A   Overcast
10:53 PM 52.0 °F 51.1 °F 97% 30.23 in 9.0 mi Calm Calm - N/A   Overcast
11:32 PM 51.8 °F 51.8 °F 100% 30.24 in 2.5 mi Calm Calm - N/A   Overcast
11:35 PM 51.8 °F 51.8 °F 100% 30.24 in 1.2 mi Calm Calm - N/A   Overcast
11:40 PM 51.8 °F 51.8 °F 100% 30.24 in 0.5 mi Calm Calm - N/A Fog Fog
11:53 PM 51.1 °F 50.0 °F 96% 30.25 in 0.5 mi Calm Calm - N/A Fog Fog